Regional Weather Roundup
Issued by NWS

Home | Current Version | Previous Version | Graphics & Text | Print | Product List | Glossary Off
Versions: 1 2 3 4 5 6 7 8 9 10 11 12 13 14 15 16 17 18 19 20 21 22 23 24 25 26 27 28 29 30 31 32 33 34 35 36 37 38 39 40 41 42 43 44 45 46 47 48 49 50

000
ASUS43 KDMX 211607
RWRIA

WEATHER ROUNDUP FOR IOWA
NATIONAL WEATHER SERVICE DES MOINES IA
1100 AM CDT MON JUL 21 2014

NOTE: "FAIR" INDICATES FEW OR NO CLOUDS BELOW 12,000 FEET WITH NO
SIGNIFICANT WEATHER AND/OR OBSTRUCTIONS TO VISIBILITY.

* - THESE STATIONS ARE NOT NWS STATIONS...THUS NOT UNDER NWS
QUALITY CONTROL.  THEY ALSO DO NOT REPORT WEATHER SUCH
AS PRECIPITATION OR FOG.

IAZ001>003-012>014-020>022-031>034-043>046-211700-
   NORTHWEST IOWA

CITY           SKY/WX    TMP DP  RH WIND       PRES   REMARKS
CARROLL *      PTSUNNY   81  73  78 S10G17    29.90S HX  85
CHEROKEE *     CLOUDY    79  73  83 SE12      29.87S HX  82
DENISON *      CLOUDY    81  73  78 S13G18    29.87S HX  85
LE MARS *      CLOUDY    81  73  78 S14       29.85S HX  85
ORANGE CITY *  CLOUDY    81  72  74 SE8       29.86F HX  84
SHELDON *      CLOUDY    79  73  83 S10G17    29.86S HX  82
SIOUX CITY     CLOUDY    82  74  76 SE10      29.83F HX  88
SPENCER        CLOUDY    80  72  76 S13       29.88F HX  84
STORM LAKE *   CLOUDY    77  75  94 S13G18    29.91R
$$

IAZ055>058-069>071-079>083-090>094-211700-
   SOUTHWEST IOWA

CITY           SKY/WX    TMP DP  RH WIND       PRES   REMARKS
ATLANTIC *     MOSUNNY   82  73  74 S15       29.90R HX  88
AUDUBON *      SUNNY     84  77  79 S13       29.92R HX  94
CLARINDA *     SUNNY     82  75  78 S13G20    29.93S HX  89
COUNCIL BLFS * MOSUNNY   82  77  83 S13G18    29.88R HX  91
CRESTON *      SUNNY     81  73  78 S17       29.95S HX  85
HARLAN  *      MOSUNNY   81  73  78 S14G22    29.92S HX  85
LAMONI         SUNNY     80  71  74 S16G24    29.97S HX  84
RED OAK *      SUNNY     82  75  78 S13       29.91R HX  89
SHENANDOAH *   SUNNY     84  75  74 S15       29.91R HX  92
$$

IAZ047>049-059>061-072>074-084-211700-
   CENTRAL IOWA

CITY           SKY/WX    TMP DP  RH WIND       PRES   REMARKS
AMES           SUNNY     81  72  74 SE12      29.93S HX  85
ANKENY *       SUNNY     82  73  74 S12       29.93F HX  88
CHARITON *     SUNNY     81  73  78 S15       29.97S HX  85
DES MOINES     MOSUNNY   84  71  65 S14       29.93F HX  89
GRINNELL*      MOSUNNY   79  70  73 SE12G17   29.99S HX  81
KNOXVILLE *    MOSUNNY   81  72  74 S14       29.95S HX  84
MARSHALLTOWN   SUNNY     79  70  74 SE16      29.96S HX  82
PELLA *        SUNNY     81  72  74 S13       29.98S HX  84
PERRY *          N/A     82  73  74 S12G17    29.92S HX  88
$$

IAZ004>006-015-016-023>025-035-036-211700-
   NORTH CENTRAL IOWA

CITY           SKY/WX    TMP DP  RH WIND       PRES   REMARKS
ALGONA *       MOSUNNY   81  72  74 S12G17    29.91S HX  84
CLARION *      SUNNY     81  72  74 S14       29.93S HX  84
ESTHERVILLE    SUNNY     79  71  76 S13       29.89F HX  82
FORT DODGE *   PTSUNNY   81  72  74 S10       29.92S HX  84
MASON CITY     SUNNY     80  71  74 S15       29.95F HX  84
FOREST CITY *  SUNNY     81  72  74 SE15G22   29.93S HX  84
IOWA FALLS *     N/A     79  70  73 SE14      29.96S HX  81
$$

IAZ007>011-017>019-026>030-037>042-050>054-066-211700-
   NORTHEAST IOWA

CITY           SKY/WX    TMP DP  RH WIND       PRES   REMARKS
CEDAR RAPIDS   SUNNY     79  65  62 S10G20    30.01F HX  81
CHARLES CITY * SUNNY     79  70  73 SE13      29.98S HX  81
DECORAH *      SUNNY     79  68  69 S10G16    30.00S HX  81
DUBUQUE        SUNNY     78  68  71 S14       30.05S HX  80
MONTICELLO *   SUNNY     81  68  65 S14       30.04S HX  83
OELWEIN *      SUNNY     81  70  69 S16G24    30.01S HX  84
WATERLOO       MOSUNNY   81  68  64 SE14G23   29.97F HX  84
$$

IAZ064-065-067-068-078-211700-
   EAST CENTRAL IOWA

CITY           SKY/WX    TMP DP  RH WIND       PRES   REMARKS
DAVENPORT      SUNNY     80  66  62 S14       30.07R HX  82
IOWA CITY      SUNNY     81  70  69 S13       30.03F HX  84
MT. PLEASANT * SUNNY     82  66  57 S13       30.04S HX  85
MUSCATINE *    SUNNY     81  68  65 S13       30.04S HX  83
QUAD CITIES    SUNNY     80  67  64 S10       30.06R HX  82
$$

IAZ062-063-075>077-085>089-095>099-211700-
   SOUTHEAST IOWA

CITY           SKY/WX    TMP DP  RH WIND       PRES   REMARKS
BURLINGTON     SUNNY     80  68  66 S14       30.05S HX  83
FAIRFIELD *    MOSUNNY   81  68  65 S18       30.02S HX  83
FORT MADISON * MOSUNNY   82  72  69 S8        30.06S HX  87
KEOKUK *       SUNNY     79  70  73 S12       30.05S HX  81
OSKALOOSA *    PTSUNNY   79  72  78 S15       30.00S HX  82
OTTUMWA        PTSUNNY   80  71  74 S13       29.98S HX  84
WASHINGTON *   SUNNY     81  70  69 S15       30.03S HX  84
$$

ABBREVIATIONS USED IN REMARKS
   TC - TEMPERATURES IN CELSIUS
  WCI - WIND CHILL INDEX
   HX - HEAT INDEX
  VSB - VISIBILITY
$$



USA.gov is the U.S. government's official web portal to all federal, state and local government web resources and services.